Time,TemperatureF,DewpointF,PressureIn,WindDirection,WindDirectionDegrees,WindSpeedMPH,WindSpeedGustMPH,Humidity,HourlyPrecipIn,Conditions,Clouds,dailyrainin,SoftwareType,DateUTC
2013-07-13 00:03:00,66.7,61.0,30.07,ENE,66,1.0,1.0,82,0.00,,,0.00,Wunderground v.1.15,2013-07-13 04:03:00,
2013-07-13 00:13:00,66.4,61.1,30.07,ENE,66,0.0,0.0,83,0.00,,,0.00,Wunderground v.1.15,2013-07-13 04:13:00,
2013-07-13 00:23:00,66.3,61.0,30.07,ENE,66,1.0,1.0,83,0.00,,,0.00,Wunderground v.1.15,2013-07-13 04:23:00,
2013-07-13 00:33:00,66.5,61.2,30.07,ENE,66,1.0,2.0,83,0.00,,,0.00,Wunderground v.1.15,2013-07-13 04:33:00,
2013-07-13 00:43:00,66.4,61.1,30.07,ENE,66,1.0,1.0,83,0.00,,,0.00,Wunderground v.1.15,2013-07-13 04:43:00,
2013-07-13 00:52:00,66.2,61.2,30.08,ENE,65,2.0,2.0,84,0.00,,,0.00,Wunderground v.1.15,2013-07-13 04:52:00,
2013-07-13 01:03:00,65.5,60.9,30.08,ENE,65,0.0,0.0,85,0.00,,,0.00,Wunderground v.1.15,2013-07-13 05:03:00,
2013-07-13 01:13:00,64.9,60.9,30.08,ENE,65,1.0,1.0,87,0.00,,,0.00,Wunderground v.1.15,2013-07-13 05:13:00,
2013-07-13 01:23:00,64.3,60.7,30.08,ENE,65,0.0,0.0,88,0.00,,,0.00,Wunderground v.1.15,2013-07-13 05:23:00,
2013-07-13 01:33:00,64.1,60.5,30.08,ENE,65,0.0,0.0,88,0.00,,,0.00,Wunderground v.1.15,2013-07-13 05:33:00,
2013-07-13 01:43:00,63.9,60.3,30.08,ENE,65,0.0,0.0,88,0.00,,,0.00,Wunderground v.1.15,2013-07-13 05:43:00,
2013-07-13 01:53:00,63.5,60.2,30.08,ENE,65,0.0,0.0,89,0.00,,,0.00,Wunderground v.1.15,2013-07-13 05:53:00,
2013-07-13 02:03:00,63.1,59.8,30.08,ENE,65,0.0,0.0,89,0.00,,,0.00,Wunderground v.1.15,2013-07-13 06:03:00,
2013-07-13 02:13:00,62.9,59.9,30.08,ENE,65,0.0,0.0,90,0.00,,,0.00,Wunderground v.1.15,2013-07-13 06:13:00,
2013-07-13 02:18:00,62.8,59.8,30.07,ENE,65,0.0,0.0,90,0.00,,,0.00,Wunderground v.1.15,2013-07-13 06:18:00,
2013-07-13 02:33:00,62.4,59.7,30.07,ENE,65,0.0,0.0,91,0.00,,,0.00,Wunderground v.1.15,2013-07-13 06:33:00,
2013-07-13 02:43:00,62.4,59.7,30.08,ENE,65,0.0,0.0,91,0.00,,,0.00,Wunderground v.1.15,2013-07-13 06:43:00,
2013-07-13 02:53:00,62.7,60.0,30.08,ENE,65,1.0,1.0,91,0.00,,,0.00,Wunderground v.1.15,2013-07-13 06:53:00,
2013-07-13 03:03:00,62.9,60.2,30.07,ENE,65,1.0,1.0,91,0.00,,,0.00,Wunderground v.1.15,2013-07-13 07:03:00,
2013-07-13 03:12:00,62.7,60.0,30.07,ENE,65,0.0,1.0,91,0.00,,,0.00,Wunderground v.1.15,2013-07-13 07:12:00,
2013-07-13 03:23:00,62.4,59.7,30.08,ENE,65,0.0,1.0,91,0.00,,,0.00,Wunderground v.1.15,2013-07-13 07:23:00,
2013-07-13 03:33:00,62.4,59.7,30.08,ENE,65,0.0,0.0,91,0.00,,,0.00,Wunderground v.1.15,2013-07-13 07:33:00,
2013-07-13 03:43:00,62.4,60.0,30.08,ENE,65,0.0,0.0,92,0.00,,,0.00,Wunderground v.1.15,2013-07-13 07:43:00,
2013-07-13 03:53:00,62.4,60.0,30.08,ENE,65,0.0,0.0,92,0.00,,,0.00,Wunderground v.1.15,2013-07-13 07:53:00,
2013-07-13 04:02:00,62.2,59.8,30.08,ENE,65,0.0,0.0,92,0.00,,,0.00,Wunderground v.1.15,2013-07-13 08:02:00,
2013-07-13 04:13:00,62.2,59.8,30.08,ENE,65,0.0,0.0,92,0.00,,,0.00,Wunderground v.1.15,2013-07-13 08:13:00,
2013-07-13 04:23:00,62.5,60.1,30.08,ENE,65,0.0,0.0,92,0.00,,,0.00,Wunderground v.1.15,2013-07-13 08:23:00,
2013-07-13 04:33:00,62.6,60.2,30.08,ENE,65,0.0,0.0,92,0.00,,,0.00,Wunderground v.1.15,2013-07-13 08:33:00,
2013-07-13 04:42:00,62.7,60.3,30.08,ENE,65,0.0,1.0,92,0.00,,,0.00,Wunderground v.1.15,2013-07-13 08:42:00,
2013-07-13 04:53:00,62.8,60.1,30.09,ENE,65,0.0,0.0,91,0.00,,,0.00,Wunderground v.1.15,2013-07-13 08:53:00,
2013-07-13 05:03:00,62.9,60.5,30.08,ENE,65,0.0,0.0,92,0.00,,,0.00,Wunderground v.1.15,2013-07-13 09:03:00,
2013-07-13 05:13:00,62.9,60.2,30.09,ENE,65,1.0,2.0,91,0.00,,,0.00,Wunderground v.1.15,2013-07-13 09:13:00,
2013-07-13 05:22:00,63.0,60.3,30.09,ENE,64,1.0,1.0,91,0.00,,,0.00,Wunderground v.1.15,2013-07-13 09:22:00,
2013-07-13 05:33:00,63.0,60.3,30.09,ENE,64,0.0,0.0,91,0.00,,,0.00,Wunderground v.1.15,2013-07-13 09:33:00,
2013-07-13 05:43:00,62.9,60.2,30.09,ENE,64,0.0,0.0,91,0.00,,,0.00,Wunderground v.1.15,2013-07-13 09:43:00,
2013-07-13 05:53:00,63.0,60.3,30.09,ENE,64,1.0,1.0,91,0.00,,,0.00,Wunderground v.1.15,2013-07-13 09:53:00,
2013-07-13 06:03:00,63.1,60.1,30.09,ENE,64,1.0,2.0,90,0.00,,,0.00,Wunderground v.1.15,2013-07-13 10:03:00,
2013-07-13 06:13:00,63.1,60.1,30.09,ENE,64,0.0,0.0,90,0.00,,,0.00,Wunderground v.1.15,2013-07-13 10:13:00,
2013-07-13 06:23:00,63.0,60.0,30.09,ENE,64,0.0,2.0,90,0.00,,,0.00,Wunderground v.1.15,2013-07-13 10:23:00,
2013-07-13 06:33:00,63.1,60.1,30.09,ENE,64,0.0,1.0,90,0.00,,,0.00,Wunderground v.1.15,2013-07-13 10:33:00,
2013-07-13 06:43:00,63.2,60.2,30.10,ENE,64,0.0,0.0,90,0.00,,,0.00,Wunderground v.1.15,2013-07-13 10:43:00,
2013-07-13 06:53:00,63.3,60.3,30.10,ENE,60,0.0,0.0,90,0.00,,,0.00,Wunderground v.1.15,2013-07-13 10:53:00,
2013-07-13 07:03:00,63.5,60.5,30.09,ENE,67,1.0,2.0,90,0.00,,,0.00,Wunderground v.1.15,2013-07-13 11:03:00,
2013-07-13 07:13:00,63.9,60.6,30.10,ENE,69,1.0,2.0,89,0.00,,,0.00,Wunderground v.1.15,2013-07-13 11:13:00,
2013-07-13 07:23:00,64.5,60.9,30.10,East,83,2.0,2.0,88,0.00,,,0.00,Wunderground v.1.15,2013-07-13 11:23:00,
2013-07-13 07:33:00,64.9,60.9,30.10,ESE,105,2.0,4.0,87,0.00,,,0.00,Wunderground v.1.15,2013-07-13 11:33:00,
2013-07-13 07:43:00,65.4,61.1,30.10,ENE,73,2.0,3.0,86,0.00,,,0.00,Wunderground v.1.15,2013-07-13 11:43:00,
2013-07-13 07:53:00,66.3,61.7,30.10,NE,53,1.0,2.0,85,0.00,,,0.00,Wunderground v.1.15,2013-07-13 11:53:00,
2013-07-13 08:03:00,67.3,62.3,30.10,East,85,2.0,5.0,84,0.00,,,0.00,Wunderground v.1.15,2013-07-13 12:03:00,
2013-07-13 08:13:00,67.7,62.0,30.11,ENE,65,3.0,3.0,82,0.00,,,0.00,Wunderground v.1.15,2013-07-13 12:13:00,
2013-07-13 08:23:00,68.5,62.8,30.11,East,94,2.0,5.0,82,0.00,,,0.00,Wunderground v.1.15,2013-07-13 12:23:00,
2013-07-13 08:33:00,69.0,62.9,30.10,ENE,71,3.0,3.0,81,0.00,,,0.00,Wunderground v.1.15,2013-07-13 12:33:00,
2013-07-13 08:43:00,69.5,63.4,30.10,ENE,61,3.0,3.0,81,0.00,,,0.00,Wunderground v.1.15,2013-07-13 12:43:00,
2013-07-13 08:53:00,70.0,63.2,30.11,ESE,112,3.0,3.0,79,0.00,,,0.00,Wunderground v.1.15,2013-07-13 12:53:00,
2013-07-13 09:03:00,70.6,63.8,30.11,ENE,69,3.0,4.0,79,0.00,,,0.00,Wunderground v.1.15,2013-07-13 13:03:00,
2013-07-13 09:13:00,70.7,63.5,30.11,East,81,4.0,4.0,78,0.00,,,0.00,Wunderground v.1.15,2013-07-13 13:13:00,
2013-07-13 09:23:00,71.2,64.4,30.11,North,350,3.0,3.0,79,0.00,,,0.00,Wunderground v.1.15,2013-07-13 13:23:00,
2013-07-13 09:33:00,71.6,64.4,30.11,ENE,59,3.0,3.0,78,0.00,,,0.00,Wunderground v.1.15,2013-07-13 13:33:00,
2013-07-13 09:43:00,71.7,64.1,30.11,East,81,4.0,4.0,77,0.00,,,0.00,Wunderground v.1.15,2013-07-13 13:43:00,
2013-07-13 09:53:00,71.6,64.0,30.11,ENE,60,3.0,3.0,77,0.00,,,0.00,Wunderground v.1.15,2013-07-13 13:53:00,
2013-07-13 10:03:00,71.9,64.7,30.11,East,86,3.0,5.0,78,0.00,,,0.00,Wunderground v.1.15,2013-07-13 14:03:00,
2013-07-13 10:13:00,72.6,65.3,30.11,East,101,3.0,6.0,78,0.00,,,0.00,Wunderground v.1.15,2013-07-13 14:13:00,
2013-07-13 10:23:00,72.5,64.9,30.11,ESE,107,4.0,7.0,77,0.00,,,0.00,Wunderground v.1.15,2013-07-13 14:23:00,
2013-07-13 10:33:00,72.7,65.1,30.11,East,86,3.0,5.0,77,0.00,,,0.00,Wunderground v.1.15,2013-07-13 14:33:00,
2013-07-13 10:42:00,73.2,65.6,30.11,NNE,22,3.0,3.0,77,0.00,,,0.00,Wunderground v.1.15,2013-07-13 14:42:00,
2013-07-13 10:52:00,73.5,65.8,30.11,East,93,4.0,4.0,77,0.00,,,0.00,Wunderground v.1.15,2013-07-13 14:52:00,
2013-07-13 11:03:00,74.0,66.0,30.11,East,79,5.0,7.0,76,0.00,,,0.00,Wunderground v.1.15,2013-07-13 15:03:00,
2013-07-13 11:13:00,73.7,65.7,30.12,East,82,7.0,7.0,76,0.00,,,0.00,Wunderground v.1.15,2013-07-13 15:13:00,
2013-07-13 11:23:00,74.7,66.6,30.12,East,90,5.0,6.0,76,0.00,,,0.00,Wunderground v.1.15,2013-07-13 15:23:00,
2013-07-13 11:33:00,74.6,65.8,30.12,ESE,114,7.0,9.0,74,0.00,,,0.00,Wunderground v.1.15,2013-07-13 15:33:00,
2013-07-13 11:43:00,74.8,66.3,30.12,ENE,69,4.0,4.0,75,0.00,,,0.00,Wunderground v.1.15,2013-07-13 15:43:00,
2013-07-13 11:53:00,74.4,65.2,30.12,East,87,3.0,5.0,73,0.00,,,0.00,Wunderground v.1.15,2013-07-13 15:53:00,
2013-07-13 12:03:00,73.9,65.5,30.12,East,95,7.0,7.0,75,0.00,,,0.00,Wunderground v.1.15,2013-07-13 16:03:00,
2013-07-13 12:13:00,74.8,66.3,30.12,East,94,4.0,7.0,75,0.00,,,0.00,Wunderground v.1.15,2013-07-13 16:13:00,
2013-07-13 12:23:00,75.1,66.2,30.11,East,90,4.0,4.0,74,0.00,,,0.00,Wunderground v.1.15,2013-07-13 16:23:00,
2013-07-13 12:33:00,75.5,66.2,30.11,ENE,78,4.0,4.0,73,0.00,,,0.00,Wunderground v.1.15,2013-07-13 16:33:00,
2013-07-13 12:43:00,75.7,66.4,30.11,East,82,3.0,3.0,73,0.00,,,0.00,Wunderground v.1.15,2013-07-13 16:43:00,
2013-07-13 12:53:00,76.6,66.9,30.12,East,83,3.0,3.0,72,0.00,,,0.00,Wunderground v.1.15,2013-07-13 16:53:00,
2013-07-13 13:03:00,76.6,66.5,30.11,NE,49,3.0,3.0,71,0.00,,,0.00,Wunderground v.1.15,2013-07-13 17:03:00,
2013-07-13 13:13:00,77.3,67.2,30.11,East,95,3.0,6.0,71,0.00,,,0.00,Wunderground v.1.15,2013-07-13 17:13:00,
2013-07-13 13:23:00,77.4,66.4,30.11,ENE,65,4.0,4.0,69,0.00,,,0.00,Wunderground v.1.15,2013-07-13 17:23:00,
2013-07-13 13:33:00,77.7,67.5,30.11,East,88,4.0,11.0,71,0.00,,,0.00,Wunderground v.1.15,2013-07-13 17:33:00,
2013-07-13 13:43:00,77.8,67.2,30.11,ENE,71,3.0,3.0,70,0.00,,,0.00,Wunderground v.1.15,2013-07-13 17:43:00,
2013-07-13 13:53:00,78.6,68.4,30.10,North,11,3.0,4.0,71,0.00,,,0.00,Wunderground v.1.15,2013-07-13 17:53:00,
2013-07-13 14:03:00,78.4,67.8,30.10,East,101,4.0,4.0,70,0.00,,,0.00,Wunderground v.1.15,2013-07-13 18:03:00,
2013-07-13 14:13:00,78.9,67.9,30.09,ENE,72,4.0,4.0,69,0.00,,,0.00,Wunderground v.1.15,2013-07-13 18:13:00,
2013-07-13 14:23:00,78.9,66.6,30.09,ESE,121,4.0,4.0,66,0.00,,,0.00,Wunderground v.1.15,2013-07-13 18:23:00,
2013-07-13 14:33:00,79.4,67.0,30.09,ENE,62,3.0,4.0,66,0.00,,,0.00,Wunderground v.1.15,2013-07-13 18:33:00,
2013-07-13 14:43:00,79.5,68.4,30.10,East,79,4.0,4.0,69,0.00,,,0.00,Wunderground v.1.15,2013-07-13 18:43:00,
2013-07-13 14:53:00,80.2,68.7,30.09,ESE,117,3.0,11.0,68,0.00,,,0.00,Wunderground v.1.15,2013-07-13 18:53:00,
2013-07-13 15:03:00,80.3,67.5,30.10,East,91,5.0,5.0,65,0.00,,,0.00,Wunderground v.1.15,2013-07-13 19:03:00,
2013-07-13 15:13:00,80.8,67.9,30.09,NNE,18,3.0,3.0,65,0.00,,,0.00,Wunderground v.1.15,2013-07-13 19:13:00,
2013-07-13 15:23:00,80.3,67.0,30.09,ESE,119,6.0,8.0,64,0.00,,,0.00,Wunderground v.1.15,2013-07-13 19:23:00,
2013-07-13 15:33:00,80.3,66.6,30.09,ESE,106,5.0,5.0,63,0.00,,,0.00,Wunderground v.1.15,2013-07-13 19:33:00,
2013-07-13 15:43:00,81.0,67.7,30.09,East,90,3.0,6.0,64,0.00,,,0.00,Wunderground v.1.15,2013-07-13 19:43:00,
2013-07-13 15:53:00,79.5,65.8,30.09,East,101,6.0,8.0,63,0.00,,,0.00,Wunderground v.1.15,2013-07-13 19:53:00,
2013-07-13 16:03:00,80.3,67.5,30.08,ESE,110,4.0,8.0,65,0.00,,,0.00,Wunderground v.1.15,2013-07-13 20:03:00,
2013-07-13 16:13:00,80.3,66.1,30.08,ESE,119,7.0,7.0,62,0.00,,,0.00,Wunderground v.1.15,2013-07-13 20:13:00,
2013-07-13 16:23:00,80.5,66.3,30.08,East,90,7.0,7.0,62,0.00,,,0.00,Wunderground v.1.15,2013-07-13 20:23:00,
2013-07-13 16:33:00,80.5,66.3,30.08,East,93,7.0,7.0,62,0.00,,,0.00,Wunderground v.1.15,2013-07-13 20:33:00,
2013-07-13 16:43:00,80.8,66.1,30.08,ENE,67,7.0,7.0,61,0.00,,,0.00,Wunderground v.1.15,2013-07-13 20:43:00,
2013-07-13 16:53:00,81.0,66.3,30.08,ENE,71,4.0,7.0,61,0.00,,,0.00,Wunderground v.1.15,2013-07-13 20:53:00,
2013-07-13 17:03:00,81.3,66.6,30.08,East,100,4.0,9.0,61,0.00,,,0.00,Wunderground v.1.15,2013-07-13 21:03:00,
2013-07-13 17:08:00,80.5,65.8,30.08,East,94,6.0,9.0,61,0.00,,,0.00,Wunderground v.1.15,2013-07-13 21:08:00,
2013-07-13 17:23:00,81.0,65.8,30.08,ENE,60,5.0,5.0,60,0.00,,,0.00,Wunderground v.1.15,2013-07-13 21:23:00,
2013-07-13 17:32:00,80.8,66.6,30.08,East,91,5.0,5.0,62,0.00,,,0.00,Wunderground v.1.15,2013-07-13 21:32:00,
2013-07-13 17:43:00,80.5,66.3,30.08,East,84,6.0,6.0,62,0.00,,,0.00,Wunderground v.1.15,2013-07-13 21:43:00,
2013-07-13 17:53:00,80.7,66.0,30.09,East,84,6.0,6.0,61,0.00,,,0.00,Wunderground v.1.15,2013-07-13 21:53:00,
2013-07-13 18:03:00,80.2,66.5,30.09,East,100,5.0,5.0,63,0.00,,,0.00,Wunderground v.1.15,2013-07-13 22:03:00,
2013-07-13 18:13:00,80.6,66.4,30.09,ESE,119,6.0,8.0,62,0.00,,,0.00,Wunderground v.1.15,2013-07-13 22:13:00,
2013-07-13 18:23:00,80.8,66.1,30.09,ESE,102,7.0,7.0,61,0.00,,,0.00,Wunderground v.1.15,2013-07-13 22:23:00,
2013-07-13 18:33:00,79.7,67.3,30.09,East,93,6.0,6.0,66,0.00,,,0.00,Wunderground v.1.15,2013-07-13 22:33:00,
2013-07-13 18:43:00,80.3,67.0,30.09,ENE,71,2.0,2.0,64,0.00,,,0.00,Wunderground v.1.15,2013-07-13 22:43:00,
2013-07-13 18:53:00,80.3,67.0,30.09,East,84,2.0,5.0,64,0.00,,,0.00,Wunderground v.1.15,2013-07-13 22:53:00,
2013-07-13 19:03:00,79.1,66.3,30.08,East,101,5.0,9.0,65,0.00,,,0.00,Wunderground v.1.15,2013-07-13 23:03:00,
2013-07-13 19:13:00,78.7,66.4,30.08,East,80,5.0,7.0,66,0.00,,,0.00,Wunderground v.1.15,2013-07-13 23:13:00,
2013-07-13 19:23:00,79.1,66.8,30.08,ENE,75,2.0,5.0,66,0.00,,,0.00,Wunderground v.1.15,2013-07-13 23:23:00,
2013-07-13 19:33:00,79.3,67.0,30.08,NE,52,3.0,3.0,66,0.00,,,0.00,Wunderground v.1.15,2013-07-13 23:33:00,
2013-07-13 19:42:00,79.7,67.8,30.09,ESE,102,2.0,5.0,67,0.00,,,0.00,Wunderground v.1.15,2013-07-13 23:42:00,
2013-07-13 19:53:00,80.0,68.1,30.09,ENE,78,2.0,2.0,67,0.00,,,0.00,Wunderground v.1.15,2013-07-13 23:53:00,
2013-07-13 20:03:00,80.0,67.6,30.09,East,86,2.0,3.0,66,0.00,,,0.00,Wunderground v.1.15,2013-07-14 00:03:00,
2013-07-13 20:13:00,79.2,67.7,30.10,East,92,2.0,2.0,68,0.00,,,0.00,Wunderground v.1.15,2013-07-14 00:13:00,
2013-07-13 20:23:00,78.5,67.5,30.10,South,174,1.0,1.0,69,0.00,,,0.00,Wunderground v.1.15,2013-07-14 00:23:00,
2013-07-13 20:33:00,77.7,67.5,30.10,SSW,212,0.0,1.0,71,0.00,,,0.00,Wunderground v.1.15,2013-07-14 00:33:00,
2013-07-13 20:43:00,77.0,67.3,30.10,SSW,204,0.0,0.0,72,0.00,,,0.00,Wunderground v.1.15,2013-07-14 00:43:00,
2013-07-13 20:53:00,76.5,66.8,30.10,SW,235,0.0,1.0,72,0.00,,,0.00,Wunderground v.1.15,2013-07-14 00:53:00,
2013-07-13 21:03:00,76.2,66.9,30.10,SW,235,0.0,0.0,73,0.00,,,0.00,Wunderground v.1.15,2013-07-14 01:03:00,
2013-07-13 21:13:00,75.7,66.8,30.10,SE,143,0.0,0.0,74,0.00,,,0.00,Wunderground v.1.15,2013-07-14 01:13:00,
2013-07-13 21:23:00,75.3,66.8,30.10,SE,140,1.0,1.0,75,0.00,,,0.00,Wunderground v.1.15,2013-07-14 01:23:00,
2013-07-13 21:33:00,74.7,67.0,30.10,SE,140,0.0,0.0,77,0.00,,,0.00,Wunderground v.1.15,2013-07-14 01:33:00,
2013-07-13 21:43:00,74.2,66.5,30.10,SE,140,0.0,0.0,77,0.00,,,0.00,Wunderground v.1.15,2013-07-14 01:43:00,
2013-07-13 21:53:00,73.9,66.6,30.11,SE,140,0.0,0.0,78,0.00,,,0.00,Wunderground v.1.15,2013-07-14 01:53:00,
2013-07-13 22:03:00,73.7,66.4,30.12,SE,140,0.0,0.0,78,0.00,,,0.00,Wunderground v.1.15,2013-07-14 02:03:00,
2013-07-13 22:13:00,73.5,66.2,30.12,SE,140,0.0,0.0,78,0.00,,,0.00,Wunderground v.1.15,2013-07-14 02:13:00,
2013-07-13 22:23:00,73.6,66.7,30.13,SE,126,0.0,0.0,79,0.00,,,0.00,Wunderground v.1.15,2013-07-14 02:23:00,
2013-07-13 22:33:00,73.3,66.4,30.13,SE,126,0.0,1.0,79,0.00,,,0.00,Wunderground v.1.15,2013-07-14 02:33:00,
2013-07-13 22:43:00,73.1,66.2,30.13,SE,126,0.0,0.0,79,0.00,,,0.00,Wunderground v.1.15,2013-07-14 02:43:00,
2013-07-13 22:53:00,72.9,66.4,30.14,SE,126,0.0,0.0,80,0.00,,,0.00,Wunderground v.1.15,2013-07-14 02:53:00,
2013-07-13 23:03:00,72.6,66.1,30.14,SE,126,0.0,0.0,80,0.00,,,0.00,Wunderground v.1.15,2013-07-14 03:03:00,
2013-07-13 23:13:00,72.4,65.9,30.14,SE,126,0.0,0.0,80,0.00,,,0.00,Wunderground v.1.15,2013-07-14 03:13:00,
2013-07-13 23:23:00,72.2,66.0,30.14,SE,125,0.0,1.0,81,0.00,,,0.00,Wunderground v.1.15,2013-07-14 03:23:00,
2013-07-13 23:33:00,72.2,66.0,30.14,SE,125,1.0,2.0,81,0.00,,,0.00,Wunderground v.1.15,2013-07-14 03:33:00,
2013-07-13 23:43:00,72.5,66.0,30.14,SE,125,1.0,1.0,80,0.00,,,0.00,Wunderground v.1.15,2013-07-14 03:43:00,
2013-07-13 23:48:00,72.4,65.9,30.14,SE,125,0.0,1.0,80,0.00,,,0.00,Wunderground v.1.15,2013-07-14 03:48:00,